Year,Month,Day,Hour,Minute,Value (Times are PST for temperature in C)
2010,10,01,00,00,10.70
2010,10,01,00,01,10.70
2010,10,01,00,02,10.70
2010,10,01,00,03,10.70
2010,10,01,00,04,10.80
2010,10,01,00,05,10.80
2010,10,01,00,06,10.80
2010,10,01,00,07,10.80
2010,10,01,00,08,10.80
2010,10,01,00,09,10.80
2010,10,01,00,10,10.80
2010,10,01,00,11,10.80
2010,10,01,00,12,10.80
2010,10,01,00,13,10.80
2010,10,01,00,14,10.70
2010,10,01,00,15,10.80
2010,10,01,00,16,10.80
2010,10,01,00,17,10.80
2010,10,01,00,18,10.70
2010,10,01,00,19,10.70
2010,10,01,00,20,10.70
2010,10,01,00,21,10.70
2010,10,01,00,22,10.70
2010,10,01,00,23,10.70
2010,10,01,00,24,10.70
2010,10,01,00,25,10.70
2010,10,01,00,26,10.70
2010,10,01,00,27,10.70
2010,10,01,00,28,10.70
2010,10,01,00,29,10.70
2010,10,01,00,30,10.70
2010,10,01,00,31,10.70
2010,10,01,00,32,10.70
2010,10,01,00,33,10.70
2010,10,01,00,34,10.70
2010,10,01,00,35,10.70
2010,10,01,00,36,10.70
2010,10,01,00,37,10.70
2010,10,01,00,38,10.70
2010,10,01,00,39,10.70
2010,10,01,00,40,10.70
2010,10,01,00,41,10.70
2010,10,01,00,42,10.60
2010,10,01,00,43,10.60
2010,10,01,00,44,10.60
2010,10,01,00,45,10.50
2010,10,01,00,46,10.50
2010,10,01,00,47,10.50
2010,10,01,00,48,10.40
2010,10,01,00,49,10.40
2010,10,01,00,50,10.40
2010,10,01,00,51,10.40
2010,10,01,00,52,10.30
2010,10,01,00,53,10.30
2010,10,01,00,54,10.30
2010,10,01,00,55,10.30
2010,10,01,00,56,10.20
2010,10,01,00,57,10.20
2010,10,01,00,58,10.10
2010,10,01,00,59,10.10
2010,10,01,01,00,10.00
2010,10,01,01,01,10.00
2010,10,01,01,02,9.90
2010,10,01,01,03,9.90
2010,10,01,01,04,9.80
2010,10,01,01,05,9.80
2010,10,01,01,06,9.80
2010,10,01,01,07,9.70
2010,10,01,01,08,9.70
2010,10,01,01,09,9.60
2010,10,01,01,10,9.60
2010,10,01,01,11,9.50
2010,10,01,01,12,9.50
2010,10,01,01,13,9.40
2010,10,01,01,14,9.40
2010,10,01,01,15,9.40
2010,10,01,01,16,9.30
2010,10,01,01,17,9.30
2010,10,01,01,18,9.20
2010,10,01,01,19,9.20
2010,10,01,01,20,9.20
2010,10,01,01,21,9.10
2010,10,01,01,22,9.10
2010,10,01,01,23,9.10
2010,10,01,01,24,9.00
2010,10,01,01,25,9.00
2010,10,01,01,26,9.00
2010,10,01,01,27,8.90
2010,10,01,01,28,8.90
2010,10,01,01,29,8.90
2010,10,01,01,30,8.80
2010,10,01,01,31,8.80
2010,10,01,01,32,8.80
2010,10,01,01,33,8.80
2010,10,01,01,34,8.80
2010,10,01,01,35,8.70
2010,10,01,01,36,8.70
2010,10,01,01,37,8.70
2010,10,01,01,38,8.70
2010,10,01,01,39,8.70
2010,10,01,01,40,8.70
2010,10,01,01,41,8.60
2010,10,01,01,42,8.60
2010,10,01,01,43,8.60
2010,10,01,01,44,8.60
2010,10,01,01,45,8.60
2010,10,01,01,46,8.60
2010,10,01,01,47,8.60
2010,10,01,01,48,8.50
2010,10,01,01,49,8.50
2010,10,01,01,50,8.50
2010,10,01,01,51,8.50
2010,10,01,01,52,8.50
2010,10,01,01,53,8.60
2010,10,01,01,54,8.60
2010,10,01,01,55,8.60
2010,10,01,01,56,8.60
2010,10,01,01,57,8.60
2010,10,01,01,58,8.60
2010,10,01,01,59,8.60
2010,10,01,02,00,8.60
2010,10,01,02,01,8.70
2010,10,01,02,02,8.70
2010,10,01,02,03,8.70
2010,10,01,02,04,8.70
2010,10,01,02,05,8.70
2010,10,01,02,06,8.70
2010,10,01,02,07,8.70
2010,10,01,02,08,8.70
2010,10,01,02,09,8.60
2010,10,01,02,10,8.60
2010,10,01,02,11,8.60
2010,10,01,02,12,8.60
2010,10,01,02,13,8.60
2010,10,01,02,14,8.70
2010,10,01,02,15,8.70
2010,10,01,02,16,8.70
2010,10,01,02,17,8.80
2010,10,01,02,18,8.80
2010,10,01,02,19,8.90
2010,10,01,02,20,8.90
2010,10,01,02,21,9.00
2010,10,01,02,22,9.00
2010,10,01,02,23,9.10
2010,10,01,02,24,9.10
2010,10,01,02,25,9.10
2010,10,01,02,26,9.10
2010,10,01,02,27,9.10
2010,10,01,02,28,9.10
2010,10,01,02,29,9.10
2010,10,01,02,30,9.10
2010,10,01,02,31,9.20
2010,10,01,02,32,9.20
2010,10,01,02,33,9.20
2010,10,01,02,34,9.20
2010,10,01,02,35,9.20
2010,10,01,02,36,9.20
2010,10,01,02,37,9.30
2010,10,01,02,38,9.20
2010,10,01,02,39,9.20
2010,10,01,02,40,9.20
2010,10,01,02,41,9.20
2010,10,01,02,42,9.20
2010,10,01,02,43,9.20
2010,10,01,02,44,9.20
2010,10,01,02,45,9.20
2010,10,01,02,46,9.20
2010,10,01,02,47,9.20
2010,10,01,02,48,9.20
2010,10,01,02,49,9.10
2010,10,01,02,50,9.10
2010,10,01,02,51,9.10
2010,10,01,02,52,9.10
2010,10,01,02,53,9.10
2010,10,01,02,54,9.10
2010,10,01,02,55,9.00
2010,10,01,02,56,9.00
2010,10,01,02,57,9.00
2010,10,01,02,58,8.90
2010,10,01,02,59,8.90
2010,10,01,03,00,8.90
2010,10,01,03,06,8.80
2010,10,01,03,07,8.70
2010,10,01,03,08,8.70
2010,10,01,03,09,8.70
2010,10,01,03,10,8.70
2010,10,01,03,11,8.60
2010,10,01,03,12,8.60
2010,10,01,03,13,8.60
2010,10,01,03,14,8.50
2010,10,01,03,15,8.50
2010,10,01,03,16,8.50
2010,10,01,03,17,8.50
2010,10,01,03,18,8.40
2010,10,01,03,19,8.40
2010,10,01,03,20,8.40
2010,10,01,03,21,8.40
2010,10,01,03,22,8.40
2010,10,01,03,23,8.30
2010,10,01,03,24,8.30
2010,10,01,03,25,8.30
2010,10,01,03,26,8.30
2010,10,01,03,27,8.30
2010,10,01,03,28,8.30
2010,10,01,03,29,8.20
2010,10,01,03,30,8.20
2010,10,01,03,31,8.20
2010,10,01,03,32,8.20
2010,10,01,03,33,8.20
2010,10,01,03,34,8.20
2010,10,01,03,35,8.10
2010,10,01,03,36,8.10
2010,10,01,03,37,8.10
2010,10,01,03,38,8.10
2010,10,01,03,39,8.10
2010,10,01,03,40,8.10
2010,10,01,03,41,8.10
2010,10,01,03,42,8.10
2010,10,01,03,43,8.00
2010,10,01,03,44,8.00
2010,10,01,03,45,8.00
2010,10,01,03,46,8.00
2010,10,01,03,47,7.90
2010,10,01,03,48,7.90
2010,10,01,03,49,7.90
2010,10,01,03,50,7.90
2010,10,01,03,51,7.90
2010,10,01,03,52,7.90
2010,10,01,03,53,7.90
2010,10,01,03,54,7.80
2010,10,01,03,55,7.80
2010,10,01,03,56,7.80
2010,10,01,03,57,7.80
2010,10,01,03,58,7.80
2010,10,01,03,59,7.80
2010,10,01,04,00,7.80
2010,10,01,04,01,7.80
2010,10,01,04,02,7.80
2010,10,01,04,03,7.70
2010,10,01,04,04,7.70
2010,10,01,04,05,7.70
2010,10,01,04,06,7.70
2010,10,01,04,07,7.70
2010,10,01,04,08,7.70
2010,10,01,04,09,7.70
2010,10,01,04,10,7.70
2010,10,01,04,11,7.70
2010,10,01,04,12,7.70
2010,10,01,04,13,7.70
2010,10,01,04,14,7.70
2010,10,01,04,15,7.70
2010,10,01,04,16,7.60
2010,10,01,04,17,7.60
2010,10,01,04,18,7.60
2010,10,01,04,19,7.60
2010,10,01,04,20,7.60
2010,10,01,04,21,7.60
2010,10,01,04,22,7.60
2010,10,01,04,23,7.60
2010,10,01,04,24,7.60
2010,10,01,04,25,7.60
2010,10,01,04,26,7.60
2010,10,01,04,27,7.50
2010,10,01,04,28,7.50
2010,10,01,04,29,7.50
2010,10,01,04,30,7.50
2010,10,01,04,31,7.50
2010,10,01,04,32,7.50
2010,10,01,04,33,7.40
2010,10,01,04,34,7.40
2010,10,01,04,35,7.40
2010,10,01,04,36,7.40
2010,10,01,04,37,7.40
2010,10,01,04,38,7.40
2010,10,01,04,39,7.40
2010,10,01,04,40,7.40
2010,10,01,04,41,7.40
2010,10,01,04,42,7.40
2010,10,01,04,43,7.30
2010,10,01,04,44,7.30
2010,10,01,04,45,7.40
2010,10,01,04,46,7.40
2010,10,01,04,47,7.40
2010,10,01,04,48,7.40
2010,10,01,04,49,7.40
2010,10,01,04,50,7.40
2010,10,01,04,51,7.40
2010,10,01,04,52,7.40
2010,10,01,04,53,7.40
2010,10,01,04,54,7.40
2010,10,01,04,55,7.40
2010,10,01,04,56,7.40
2010,10,01,04,57,7.40
2010,10,01,04,58,7.40
2010,10,01,04,59,7.40
2010,10,01,05,00,7.40
2010,10,01,05,01,7.40
2010,10,01,05,02,7.30
2010,10,01,05,03,7.30
2010,10,01,05,04,7.30
2010,10,01,05,05,7.30
2010,10,01,05,06,7.30
2010,10,01,05,07,7.30
2010,10,01,05,08,7.30
2010,10,01,05,09,7.30
2010,10,01,05,10,7.30
2010,10,01,05,11,7.30
2010,10,01,05,12,7.30
2010,10,01,05,13,7.30
2010,10,01,05,14,7.30
2010,10,01,05,15,7.30
2010,10,01,05,16,7.30
2010,10,01,05,17,7.30
2010,10,01,05,18,7.30
2010,10,01,05,19,7.30
2010,10,01,05,20,7.30
2010,10,01,05,21,7.30
2010,10,01,05,22,7.30
2010,10,01,05,23,7.30
2010,10,01,05,24,7.30
2010,10,01,05,25,7.30
2010,10,01,05,26,7.30
2010,10,01,05,27,7.30
2010,10,01,05,28,7.30
2010,10,01,05,29,7.30
2010,10,01,05,30,7.30
2010,10,01,05,31,7.30
2010,10,01,05,32,7.30
2010,10,01,05,33,7.30
2010,10,01,05,34,7.30
2010,10,01,05,35,7.30
2010,10,01,05,36,7.30
2010,10,01,05,37,7.30
2010,10,01,05,38,7.30
2010,10,01,05,39,7.30
2010,10,01,05,40,7.30
2010,10,01,05,41,7.30
2010,10,01,05,42,7.30
2010,10,01,05,43,7.30
2010,10,01,05,44,7.30
2010,10,01,05,45,7.30
2010,10,01,05,46,7.30
2010,10,01,05,47,7.30
2010,10,01,05,48,7.30
2010,10,01,05,49,7.30
2010,10,01,05,50,7.30
2010,10,01,05,51,7.30
2010,10,01,05,52,7.30
2010,10,01,05,53,7.30
2010,10,01,05,54,7.30
2010,10,01,05,55,7.30
2010,10,01,05,56,7.30
2010,10,01,05,57,7.30
2010,10,01,05,58,7.30
2010,10,01,05,59,7.30
2010,10,01,06,00,7.30
2010,10,01,06,01,7.30
2010,10,01,06,02,7.30
2010,10,01,06,03,7.30
2010,10,01,06,04,7.20
2010,10,01,06,05,7.20
2010,10,01,06,06,7.20
2010,10,01,06,07,7.20
2010,10,01,06,08,7.20
2010,10,01,06,09,7.20
2010,10,01,06,10,7.20
2010,10,01,06,11,7.20
2010,10,01,06,12,7.20
2010,10,01,06,13,7.20
2010,10,01,06,14,7.20
2010,10,01,06,15,7.20
2010,10,01,06,16,7.20
2010,10,01,06,17,7.20
2010,10,01,06,18,7.20
2010,10,01,06,19,7.20
2010,10,01,06,20,7.20
2010,10,01,06,21,7.20
2010,10,01,06,22,7.20
2010,10,01,06,23,7.20
2010,10,01,06,24,7.20
2010,10,01,06,25,7.20
2010,10,01,06,26,7.20
2010,10,01,06,27,7.20
2010,10,01,06,28,7.20
2010,10,01,06,29,7.20
2010,10,01,06,30,7.20
2010,10,01,06,31,7.20
2010,10,01,06,32,7.20
2010,10,01,06,33,7.20
2010,10,01,06,34,7.20
2010,10,01,06,35,7.20
2010,10,01,06,36,7.20
2010,10,01,06,37,7.20
2010,10,01,06,38,7.10
2010,10,01,06,39,7.10
2010,10,01,06,40,7.10
2010,10,01,06,41,7.10
2010,10,01,06,42,7.10
2010,10,01,06,43,7.10
2010,10,01,06,44,7.10
2010,10,01,06,45,7.10
2010,10,01,06,46,7.10
2010,10,01,06,47,7.10
2010,10,01,06,48,7.10
2010,10,01,06,49,7.20
2010,10,01,06,50,7.20
2010,10,01,06,51,7.10
2010,10,01,06,52,7.10
2010,10,01,06,53,7.10
2010,10,01,06,54,7.10
2010,10,01,06,55,7.10
2010,10,01,06,56,7.10
2010,10,01,06,57,7.10
2010,10,01,06,58,7.10
2010,10,01,06,59,7.10
2010,10,01,07,00,7.10
2010,10,01,07,01,7.10
2010,10,01,07,02,7.10
2010,10,01,07,03,7.10
2010,10,01,07,04,7.10
2010,10,01,07,05,7.10
2010,10,01,07,06,7.10
2010,10,01,07,07,7.10
2010,10,01,07,08,7.10
2010,10,01,07,09,7.10
2010,10,01,07,10,7.10
2010,10,01,07,11,7.10
2010,10,01,07,12,7.10
2010,10,01,07,13,7.10
2010,10,01,07,14,7.10
2010,10,01,07,15,7.10
2010,10,01,07,16,7.10
2010,10,01,07,17,7.10
2010,10,01,07,18,7.10
2010,10,01,07,19,7.10
2010,10,01,07,20,7.10
2010,10,01,07,21,7.10
2010,10,01,07,22,7.10
2010,10,01,07,23,7.10
2010,10,01,07,24,7.10
2010,10,01,07,25,7.10
2010,10,01,07,26,7.10
2010,10,01,07,27,7.10
2010,10,01,07,28,7.10
2010,10,01,07,29,7.10
2010,10,01,07,30,7.10
2010,10,01,07,31,7.10
2010,10,01,07,32,7.10
2010,10,01,07,33,7.10
2010,10,01,07,34,7.10
2010,10,01,07,35,7.10
2010,10,01,07,36,7.10
2010,10,01,07,37,7.10
2010,10,01,07,38,7.10
2010,10,01,07,39,7.10
2010,10,01,07,40,7.10
2010,10,01,07,41,7.10
2010,10,01,07,42,7.10
2010,10,01,07,43,7.10
2010,10,01,07,44,7.10
2010,10,01,07,45,7.10
2010,10,01,07,46,7.10
2010,10,01,07,47,7.10
2010,10,01,07,48,7.10
2010,10,01,07,49,7.10
2010,10,01,07,50,7.10
2010,10,01,07,51,7.20
2010,10,01,07,52,7.20
2010,10,01,07,53,7.20
2010,10,01,07,54,7.20
2010,10,01,07,55,7.20
2010,10,01,07,56,7.20
2010,10,01,07,57,7.20
2010,10,01,07,58,7.20
2010,10,01,07,59,7.20
2010,10,01,08,00,7.30
2010,10,01,08,01,7.30
2010,10,01,08,02,7.30
2010,10,01,08,03,7.30
2010,10,01,08,04,7.30
2010,10,01,08,05,7.40
2010,10,01,08,06,7.40
2010,10,01,08,07,7.40
2010,10,01,08,08,7.40
2010,10,01,08,09,7.50
2010,10,01,08,10,7.50
2010,10,01,08,11,7.50
2010,10,01,08,12,7.50
2010,10,01,08,13,7.60
2010,10,01,08,14,7.60
2010,10,01,08,15,7.60
2010,10,01,08,16,7.60
2010,10,01,08,17,7.60
2010,10,01,08,18,7.60
2010,10,01,08,19,7.60
2010,10,01,08,20,7.60
2010,10,01,08,21,7.70
2010,10,01,08,22,7.70
2010,10,01,08,23,7.70
2010,10,01,08,24,7.70
2010,10,01,08,25,7.70
2010,10,01,08,26,7.70
2010,10,01,08,27,7.70
2010,10,01,08,28,7.70
2010,10,01,08,29,7.80
2010,10,01,08,30,7.80
2010,10,01,08,31,7.80
2010,10,01,08,32,7.80
2010,10,01,08,33,7.80
2010,10,01,08,34,7.90
2010,10,01,08,35,7.90
2010,10,01,08,36,8.00
2010,10,01,08,37,8.00
2010,10,01,08,38,8.10
2010,10,01,08,39,8.10
2010,10,01,08,40,8.10
2010,10,01,08,41,8.20
2010,10,01,08,42,8.20
2010,10,01,08,43,8.30
2010,10,01,08,44,8.30
2010,10,01,08,45,8.40
2010,10,01,08,46,8.40
2010,10,01,08,47,8.40
2010,10,01,08,48,8.50
2010,10,01,08,49,8.50
2010,10,01,08,50,8.60
2010,10,01,08,51,8.60
2010,10,01,08,52,8.70
2010,10,01,08,53,8.70
2010,10,01,08,54,8.80
2010,10,01,08,55,8.80
2010,10,01,08,56,8.90
2010,10,01,08,57,9.00
2010,10,01,08,58,9.00
2010,10,01,08,59,9.10
2010,10,01,09,00,9.20
2010,10,01,09,01,9.20
2010,10,01,09,02,9.30
2010,10,01,09,03,9.30
2010,10,01,09,04,9.40
2010,10,01,09,05,9.50
2010,10,01,09,06,9.50
2010,10,01,09,07,9.60
2010,10,01,09,08,9.70
2010,10,01,09,09,9.70
2010,10,01,09,10,9.80
2010,10,01,09,11,9.90
2010,10,01,09,12,10.00
2010,10,01,09,13,10.10
2010,10,01,09,14,10.10
2010,10,01,09,15,10.20
2010,10,01,09,16,10.30
2010,10,01,09,17,10.30
2010,10,01,09,18,10.40
2010,10,01,09,19,10.50
2010,10,01,09,20,10.60
2010,10,01,09,21,10.80
2010,10,01,09,22,10.90
2010,10,01,09,23,11.00
2010,10,01,09,24,11.10
2010,10,01,09,25,11.30
2010,10,01,09,26,11.40
2010,10,01,09,27,11.50
2010,10,01,09,28,11.60
2010,10,01,09,29,11.70
2010,10,01,09,30,11.80
2010,10,01,09,31,11.90
2010,10,01,09,32,11.90
2010,10,01,09,33,12.00
2010,10,01,09,34,12.10
2010,10,01,09,35,12.20
2010,10,01,09,36,12.20
2010,10,01,09,37,12.30
2010,10,01,09,38,12.30
2010,10,01,09,39,12.30
2010,10,01,09,40,12.40
2010,10,01,09,41,12.40
2010,10,01,09,42,12.50
2010,10,01,09,43,12.60
2010,10,01,09,44,12.60
2010,10,01,09,45,12.70
2010,10,01,09,46,12.80
2010,10,01,09,47,12.90
2010,10,01,09,48,13.00
2010,10,01,09,49,13.10
2010,10,01,09,50,13.30
2010,10,01,09,51,13.40
2010,10,01,09,52,13.50
2010,10,01,09,53,13.70
2010,10,01,09,54,13.80
2010,10,01,09,55,13.90
2010,10,01,09,56,14.10
2010,10,01,09,57,14.20
2010,10,01,09,58,14.30
2010,10,01,09,59,14.40
2010,10,01,10,00,14.50
2010,10,01,10,01,14.70
2010,10,01,10,02,14.80
2010,10,01,10,03,14.90
2010,10,01,10,04,15.00
2010,10,01,10,05,15.20
2010,10,01,10,06,15.30
2010,10,01,10,07,15.40
2010,10,01,10,08,15.50
2010,10,01,10,09,15.60
2010,10,01,10,10,15.80
2010,10,01,10,11,15.80
2010,10,01,10,12,15.90
2010,10,01,10,13,16.00
2010,10,01,10,14,16.00
2010,10,01,10,15,16.10
2010,10,01,10,16,16.20
2010,10,01,10,17,16.30
2010,10,01,10,18,16.30
2010,10,01,10,19,16.40
2010,10,01,10,20,16.50
2010,10,01,10,21,16.60
2010,10,01,10,22,16.70
2010,10,01,10,23,16.70
2010,10,01,10,24,16.70
2010,10,01,10,25,16.80
2010,10,01,10,26,16.80
2010,10,01,10,27,16.80
2010,10,01,10,28,16.80
2010,10,01,10,29,16.90
2010,10,01,10,30,16.90
2010,10,01,10,31,16.90
2010,10,01,10,32,16.90
2010,10,01,10,33,16.90
2010,10,01,10,34,17.00
2010,10,01,10,35,17.10
2010,10,01,10,36,17.10
2010,10,01,10,37,17.10
2010,10,01,10,38,17.10
2010,10,01,10,39,17.10
2010,10,01,10,40,17.10
2010,10,01,10,41,17.10
2010,10,01,10,42,17.10
2010,10,01,10,43,17.10
2010,10,01,10,44,17.10
2010,10,01,10,45,17.10
2010,10,01,10,46,17.10
2010,10,01,10,47,17.10
2010,10,01,10,48,17.10
2010,10,01,10,49,17.10
2010,10,01,10,50,17.10
2010,10,01,10,51,17.10
2010,10,01,10,52,17.10
2010,10,01,10,53,17.10
2010,10,01,10,54,17.10
2010,10,01,10,55,17.10
2010,10,01,10,56,17.10
2010,10,01,10,57,17.10
2010,10,01,10,58,17.00
2010,10,01,10,59,17.00
2010,10,01,11,00,17.00
2010,10,01,11,01,17.00
2010,10,01,11,02,16.90
2010,10,01,11,03,16.90
2010,10,01,11,04,16.90
2010,10,01,11,05,17.00
2010,10,01,11,06,17.00
2010,10,01,11,07,17.10
2010,10,01,11,08,17.10
2010,10,01,11,09,17.20
2010,10,01,11,10,17.20
2010,10,01,11,11,17.20
2010,10,01,11,12,17.20
2010,10,01,11,13,17.30
2010,10,01,11,14,17.30
2010,10,01,11,15,17.30
2010,10,01,11,16,17.40
2010,10,01,11,17,17.40
2010,10,01,11,18,17.40
2010,10,01,11,19,17.50
2010,10,01,11,20,17.50
2010,10,01,11,21,17.60
2010,10,01,11,22,17.60
2010,10,01,11,23,17.60
2010,10,01,11,24,17.70
2010,10,01,11,25,17.70
2010,10,01,11,26,17.80
2010,10,01,11,27,17.80
2010,10,01,11,28,17.80
2010,10,01,11,29,17.70
2010,10,01,11,30,17.70
2010,10,01,11,31,17.70
2010,10,01,11,32,17.80
2010,10,01,11,33,17.80
2010,10,01,11,34,17.70
2010,10,01,11,35,17.70
2010,10,01,11,36,17.80
2010,10,01,11,37,17.90
2010,10,01,11,38,18.00
2010,10,01,11,39,18.10
2010,10,01,11,40,18.30
2010,10,01,11,41,18.40
2010,10,01,11,42,18.50
2010,10,01,11,43,18.60
2010,10,01,11,44,18.70
2010,10,01,11,45,18.70
2010,10,01,11,46,18.70
2010,10,01,11,47,18.70
2010,10,01,11,48,18.60
2010,10,01,11,49,18.60
2010,10,01,11,50,18.50
2010,10,01,11,51,18.50
2010,10,01,11,52,18.40
2010,10,01,11,53,18.40
2010,10,01,11,54,18.40
2010,10,01,11,55,18.40
2010,10,01,11,56,18.40
2010,10,01,11,57,18.40
2010,10,01,11,58,18.40
2010,10,01,11,59,18.40
2010,10,01,12,00,18.40
2010,10,01,12,01,18.40
2010,10,01,12,02,18.40
2010,10,01,12,03,18.40
2010,10,01,12,04,18.40
2010,10,01,12,05,18.40
2010,10,01,12,06,18.50
2010,10,01,12,07,18.50
2010,10,01,12,08,18.50
2010,10,01,12,09,18.50
2010,10,01,12,10,18.50
2010,10,01,12,11,18.40
2010,10,01,12,12,18.40
2010,10,01,12,13,18.40
2010,10,01,12,14,18.40
2010,10,01,12,15,18.30
2010,10,01,12,16,18.30
2010,10,01,12,17,18.30
2010,10,01,12,18,18.20
2010,10,01,12,19,18.10
2010,10,01,12,20,18.10
2010,10,01,12,21,18.10
2010,10,01,12,22,18.10
2010,10,01,12,23,18.10
2010,10,01,12,24,18.10
2010,10,01,12,25,18.00
2010,10,01,12,26,17.90
2010,10,01,12,27,17.90
2010,10,01,12,28,17.80
2010,10,01,12,29,17.70
2010,10,01,12,30,17.60
2010,10,01,12,31,17.60
2010,10,01,12,32,17.60
2010,10,01,12,33,17.60
2010,10,01,12,34,17.70
2010,10,01,12,35,17.80
2010,10,01,12,36,17.80
2010,10,01,12,37,17.80
2010,10,01,12,38,17.70
2010,10,01,12,39,17.70
2010,10,01,12,40,17.60
2010,10,01,12,41,17.70
2010,10,01,12,42,17.70
2010,10,01,12,43,17.70
2010,10,01,12,44,17.70
2010,10,01,12,45,17.60
2010,10,01,12,46,17.50
2010,10,01,12,47,17.50
2010,10,01,12,48,17.50
2010,10,01,12,49,17.40
2010,10,01,12,50,17.40
2010,10,01,12,51,17.50
2010,10,01,12,52,17.60
2010,10,01,12,53,17.60
2010,10,01,12,54,17.60
2010,10,01,12,55,17.70
2010,10,01,12,56,17.80
2010,10,01,12,57,18.00
2010,10,01,12,58,18.00
2010,10,01,12,59,18.10
2010,10,01,13,00,18.10
2010,10,01,13,01,18.10
2010,10,01,13,02,18.20
2010,10,01,13,03,18.20
2010,10,01,13,04,18.30
2010,10,01,13,05,18.40
2010,10,01,13,06,18.40
2010,10,01,13,07,18.40
2010,10,01,13,08,18.50
2010,10,01,13,09,18.60
2010,10,01,13,10,18.60
2010,10,01,13,11,18.70
2010,10,01,13,12,18.70
2010,10,01,13,13,18.70
2010,10,01,13,14,18.80
2010,10,01,13,15,18.80
2010,10,01,13,16,18.80
2010,10,01,13,17,18.80
2010,10,01,13,18,18.80
2010,10,01,13,19,18.70
2010,10,01,13,20,18.70
2010,10,01,13,21,18.60
2010,10,01,13,22,18.50
2010,10,01,13,23,18.50
2010,10,01,13,24,18.50
2010,10,01,13,25,18.50
2010,10,01,13,26,18.60
2010,10,01,13,27,18.60
2010,10,01,13,28,18.70
2010,10,01,13,29,18.70
2010,10,01,13,30,18.70
2010,10,01,13,31,18.70
2010,10,01,13,32,18.70
2010,10,01,13,33,18.70
2010,10,01,13,34,18.70
2010,10,01,13,35,18.70
2010,10,01,13,36,18.70
2010,10,01,13,37,18.60
2010,10,01,13,38,18.60
2010,10,01,13,39,18.70
2010,10,01,13,40,18.60
2010,10,01,13,41,18.60
2010,10,01,13,42,18.70
2010,10,01,13,43,18.70
2010,10,01,13,44,18.80
2010,10,01,13,45,18.90
2010,10,01,13,46,18.90
2010,10,01,13,47,18.90
2010,10,01,13,48,19.00
2010,10,01,13,49,19.00
2010,10,01,13,50,19.10
2010,10,01,13,51,19.10
2010,10,01,13,52,19.10
2010,10,01,13,53,19.10
2010,10,01,13,54,19.10
2010,10,01,13,55,19.00
2010,10,01,13,56,18.90
2010,10,01,13,57,18.90
2010,10,01,13,58,18.80
2010,10,01,13,59,18.80
2010,10,01,14,00,18.70
2010,10,01,14,01,18.70
2010,10,01,14,02,18.70
2010,10,01,14,03,18.70
2010,10,01,14,04,18.60
2010,10,01,14,05,18.60
2010,10,01,14,06,18.60
2010,10,01,14,07,18.60
2010,10,01,14,08,18.60
2010,10,01,14,09,18.70
2010,10,01,14,10,18.80
2010,10,01,14,11,18.80
2010,10,01,14,12,18.90
2010,10,01,14,13,19.00
2010,10,01,14,14,19.00
2010,10,01,14,15,19.00
2010,10,01,14,16,19.00
2010,10,01,14,17,18.90
2010,10,01,14,18,18.90
2010,10,01,14,19,18.90
2010,10,01,14,20,18.80
2010,10,01,14,21,18.90
2010,10,01,14,22,18.90
2010,10,01,14,23,18.90
2010,10,01,14,24,18.90
2010,10,01,14,25,18.90
2010,10,01,14,26,18.90
2010,10,01,14,27,18.90
2010,10,01,14,28,18.90
2010,10,01,14,29,18.90
2010,10,01,14,30,18.90
2010,10,01,14,31,18.90
2010,10,01,14,32,18.80
2010,10,01,14,33,18.80
2010,10,01,14,34,18.80
2010,10,01,14,35,18.80
2010,10,01,14,36,18.80
2010,10,01,14,37,18.70
2010,10,01,14,38,18.70
2010,10,01,14,39,18.70
2010,10,01,14,40,18.70
2010,10,01,14,41,18.80
2010,10,01,14,42,18.80
2010,10,01,14,43,18.80
2010,10,01,14,44,18.80
2010,10,01,14,45,18.80
2010,10,01,14,46,18.80
2010,10,01,14,47,18.80
2010,10,01,14,48,18.80
2010,10,01,14,49,18.70
2010,10,01,14,50,18.60
2010,10,01,14,51,18.60
2010,10,01,14,52,18.50
2010,10,01,14,53,18.40
2010,10,01,14,54,18.30
2010,10,01,14,55,18.30
2010,10,01,14,56,18.30
2010,10,01,14,57,18.40
2010,10,01,14,58,18.40
2010,10,01,14,59,18.50
2010,10,01,15,00,18.50
2010,10,01,15,01,18.60
2010,10,01,15,02,18.70
2010,10,01,15,03,18.70
2010,10,01,15,04,18.80
2010,10,01,15,05,18.80
2010,10,01,15,06,18.90
2010,10,01,15,07,18.90
2010,10,01,15,08,19.00
2010,10,01,15,09,19.00
2010,10,01,15,10,18.90
2010,10,01,15,11,18.90
2010,10,01,15,12,18.90
2010,10,01,15,13,18.90
2010,10,01,15,14,19.00
2010,10,01,15,15,19.00
2010,10,01,15,16,19.00
2010,10,01,15,17,19.10
2010,10,01,15,18,19.10
2010,10,01,15,19,19.20
2010,10,01,15,20,19.20
2010,10,01,15,21,19.20
2010,10,01,15,22,19.20
2010,10,01,15,23,19.20
2010,10,01,15,24,19.20
2010,10,01,15,25,19.30
2010,10,01,15,26,19.30
2010,10,01,15,27,19.30
2010,10,01,15,28,19.20
2010,10,01,15,29,19.20
2010,10,01,15,30,19.10
2010,10,01,15,31,19.10
2010,10,01,15,32,19.00
2010,10,01,15,33,18.90
2010,10,01,15,34,18.90
2010,10,01,15,35,18.80
2010,10,01,15,36,18.80
2010,10,01,15,37,18.80
2010,10,01,15,38,18.80
2010,10,01,15,39,18.80
2010,10,01,15,40,18.80
2010,10,01,15,41,18.80
2010,10,01,15,42,18.80
2010,10,01,15,43,18.80
2010,10,01,15,44,18.70
2010,10,01,15,45,18.70
2010,10,01,15,46,18.70
2010,10,01,15,47,18.70
2010,10,01,15,48,18.70
2010,10,01,15,49,18.80
2010,10,01,15,50,18.80
2010,10,01,15,51,18.80
2010,10,01,15,52,18.80
2010,10,01,15,53,18.80
2010,10,01,15,54,18.70
2010,10,01,15,55,18.70
2010,10,01,15,56,18.70
2010,10,01,15,57,18.60
2010,10,01,15,58,18.60
2010,10,01,15,59,18.60
2010,10,01,16,00,18.60
2010,10,01,16,01,18.50
2010,10,01,16,02,18.50
2010,10,01,16,03,18.40
2010,10,01,16,04,18.40
2010,10,01,16,05,18.30
2010,10,01,16,06,18.30
2010,10,01,16,07,18.30
2010,10,01,16,08,18.30
2010,10,01,16,09,18.20
2010,10,01,16,10,18.20
2010,10,01,16,11,18.20
2010,10,01,16,12,18.10
2010,10,01,16,13,18.10
2010,10,01,16,14,18.10
2010,10,01,16,15,18.00
2010,10,01,16,16,18.00
2010,10,01,16,17,18.00
2010,10,01,16,18,18.00
2010,10,01,16,19,18.00
2010,10,01,16,20,18.00
2010,10,01,16,21,18.10
2010,10,01,16,22,18.10
2010,10,01,16,23,18.10
2010,10,01,16,24,18.20
2010,10,01,16,25,18.20
2010,10,01,16,26,18.20
2010,10,01,16,27,18.20
2010,10,01,16,28,18.20
2010,10,01,16,29,18.20
2010,10,01,16,30,18.20
2010,10,01,16,31,18.20
2010,10,01,16,32,18.20
2010,10,01,16,33,18.20
2010,10,01,16,34,18.10
2010,10,01,16,35,18.10
2010,10,01,16,36,18.10
2010,10,01,16,37,18.10
2010,10,01,16,38,18.20
2010,10,01,16,39,18.20
2010,10,01,16,40,18.10
2010,10,01,16,41,18.10
2010,10,01,16,42,18.10
2010,10,01,16,43,18.10
2010,10,01,16,44,18.10
2010,10,01,16,45,18.10
2010,10,01,16,46,18.10
2010,10,01,16,47,18.10
2010,10,01,16,48,18.10
2010,10,01,16,49,18.10
2010,10,01,16,50,18.10
2010,10,01,16,51,18.10
2010,10,01,16,52,18.10
2010,10,01,16,53,18.10
2010,10,01,16,54,18.10
2010,10,01,16,55,18.10
2010,10,01,16,56,18.10
2010,10,01,16,57,18.10
2010,10,01,16,58,18.10
2010,10,01,16,59,18.10
2010,10,01,17,00,18.10
2010,10,01,17,01,18.10
2010,10,01,17,02,18.00
2010,10,01,17,03,17.90
2010,10,01,17,04,17.90
2010,10,01,17,05,17.90
2010,10,01,17,06,17.80
2010,10,01,17,07,17.80
2010,10,01,17,08,17.80
2010,10,01,17,09,17.70
2010,10,01,17,10,17.70
2010,10,01,17,11,17.70
2010,10,01,17,12,17.70
2010,10,01,17,13,17.70
2010,10,01,17,14,17.70
2010,10,01,17,15,17.70
2010,10,01,17,16,17.70
2010,10,01,17,17,17.60
2010,10,01,17,18,17.60
2010,10,01,17,19,17.60
2010,10,01,17,20,17.50
2010,10,01,17,21,17.50
2010,10,01,17,22,17.40
2010,10,01,17,23,17.40
2010,10,01,17,24,17.40
2010,10,01,17,25,17.40
2010,10,01,17,26,17.30
2010,10,01,17,27,17.30
2010,10,01,17,28,17.30
2010,10,01,17,29,17.20
2010,10,01,17,30,17.20
2010,10,01,17,31,17.20
2010,10,01,17,32,17.20
2010,10,01,17,33,17.10
2010,10,01,17,34,17.10
2010,10,01,17,35,17.10
2010,10,01,17,36,17.00
2010,10,01,17,37,17.00
2010,10,01,17,38,16.90
2010,10,01,17,39,16.90
2010,10,01,17,40,16.90
2010,10,01,17,41,16.80
2010,10,01,17,42,16.80
2010,10,01,17,43,16.80
2010,10,01,17,44,16.80
2010,10,01,17,45,16.80